| time (UTC) | temp C | wind direction | speed KPH | gust KPH | rain 1hr cm | rain 24hr cm | rain mn cm | humidity % | barometer mb |
| 20260903084602 | 12 | 175 | 1.6 | 6.4 | 0.00 | 0.99 | 0.00 | 89 | 997.2 |
| 20260903084018 | 12 | 213 | 1.6 | 11.3 | 0.00 | 0.99 | 0.00 | 89 | 997.2 |
| 20260903083509 | 12 | 132 | 1.6 | 14.5 | 0.00 | 0.99 | 0.00 | 89 | 997.3 |
| 20260903083050 | 12 | 238 | 3.2 | 14.5 | 0.00 | 0.99 | 0.00 | 89 | 997.3 |
| 20260903082551 | 12 | 160 | 3.2 | 12.9 | 0.00 | 0.99 | 0.00 | 89 | 997.3 |
| 20260903082054 | 12 | 206 | 3.2 | 14.5 | 0.00 | 0.99 | 0.00 | 89 | 997.3 |
| 20260903081534 | 12 | 167 | 3.2 | 16.1 | 0.00 | 0.99 | 0.00 | 89 | 997.3 |
| 20260903081036 | 12 | 137 | 3.2 | 9.7 | 0.00 | 0.99 | 0.00 | 89 | 997.2 |
| 20260903080542 | 12 | 148 | 3.2 | 9.7 | 0.00 | 0.99 | 0.00 | 89 | 997.3 |
| 20260903080003 | 12 | 192 | 1.6 | 6.4 | 0.00 | 0.99 | 0.00 | 89 | 997.4 |
| 20260903075511 | 12 | 179 | 0.0 | 11.3 | 0.00 | 0.99 | 0.00 | 89 | 997.5 |
| 20260903075029 | 12 | 246 | 3.2 | 11.3 | 0.00 | 0.99 | 0.00 | 89 | 997.5 |
| 20260903074553 | 12 | 175 | 3.2 | 12.9 | 0.00 | 0.99 | 0.00 | 89 | 997.6 |
| 20260903074003 | 12 | 188 | 1.6 | 12.9 | 0.00 | 0.99 | 0.00 | 89 | 997.6 |
| 20260903073512 | 12 | 160 | 1.6 | 11.3 | 0.00 | 0.99 | 0.00 | 89 | 997.4 |
| 20260903072537 | 12 | 184 | 0.0 | 9.7 | 0.00 | 0.99 | 0.00 | 89 | 997.4 |
| 20260903072045 | 12 | 167 | 1.6 | 11.3 | 0.00 | 0.99 | 0.00 | 89 | 997.4 |
| 20260903071520 | 12 | 200 | 4.8 | 12.9 | 0.00 | 0.99 | 0.00 | 89 | 997.4 |
| 20260903071025 | 12 | 267 | 1.6 | 6.4 | 0.00 | 0.99 | 0.00 | 89 | 997.3 |
| 20260903070527 | 12 | 153 | 1.6 | 11.3 | 0.00 | 0.99 | 0.00 | 89 | 997.3 |
| 20260903070100 | 12 | 224 | 3.2 | 11.3 | 0.00 | 0.99 | 0.99 | 89 | 997.2 |
| 20260903065600 | 12 | 200 | 0.0 | 9.7 | 0.00 | 0.99 | 0.99 | 89 | 997.2 |
| 20260903065004 | 12 | 55 | 1.6 | 6.4 | 0.00 | 0.99 | 0.99 | 89 | 997.2 |
| 20260903064540 | 12 | 215 | 1.6 | 8.0 | 0.00 | 0.99 | 0.99 | 89 | 997.3 |
| 20260903064047 | 12 | 224 | 1.6 | 8.0 | 0.00 | 0.99 | 0.99 | 89 | 997.4 |
| 20260903063550 | 12 | 203 | 1.6 | 14.5 | 0.00 | 0.99 | 0.99 | 89 | 997.3 |
| 20260903063028 | 12 | 146 | 3.2 | 11.3 | 0.00 | 0.99 | 0.99 | 89 | 997.3 |
| 20260903062534 | 12 | 228 | 3.2 | 14.5 | 0.00 | 0.99 | 0.99 | 89 | 997.3 |
| 20260903062040 | 12 | 209 | 0.0 | 14.5 | 0.03 | 0.99 | 0.99 | 89 | 997.3 |
| 20260903061512 | 12 | 184 | 0.0 | 9.7 | 0.03 | 0.99 | 0.99 | 89 | 997.4 |
| 20260903061024 | 12 | 177 | 3.2 | 11.3 | 0.03 | 0.99 | 0.99 | 89 | 997.5 |
| 20260903060528 | 12 | 160 | 1.6 | 12.9 | 0.03 | 0.99 | 0.99 | 89 | 997.5 |
| 20260903060120 | 12 | 252 | 0.0 | 12.9 | 0.03 | 0.99 | 0.99 | 89 | 997.4 |
| 20260903055501 | 12 | 214 | 1.6 | 8.0 | 0.03 | 0.99 | 0.99 | 89 | 997.5 |
| 20260903055012 | 12 | 164 | 3.2 | 14.5 | 0.03 | 0.99 | 0.99 | 89 | 997.5 |
| 20260903054546 | 13 | 203 | 1.6 | 14.5 | 0.03 | 0.99 | 0.99 | 89 | 997.5 |
| 20260903054054 | 13 | 279 | 0.0 | 6.4 | 0.03 | 0.99 | 0.99 | 89 | 997.4 |
| 20260903053559 | 13 | 207 | 1.6 | 6.4 | 0.03 | 0.99 | 0.99 | 89 | 997.4 |
| 20260903053038 | 13 | 235 | 0.0 | 12.9 | 0.03 | 0.99 | 0.99 | 89 | 997.4 |
| 20260903052541 | 13 | 181 | 1.6 | 12.9 | 0.03 | 0.99 | 0.99 | 89 | 997.4 |
| 20260903052048 | 13 | 174 | 3.2 | 12.9 | 0.00 | 0.97 | 0.97 | 89 | 997.4 |
| 20260903051517 | 13 | 205 | 1.6 | 9.7 | 0.00 | 0.97 | 0.97 | 89 | 997.4 |
| 20260903051024 | 13 | 190 | 0.0 | 6.4 | 0.00 | 0.97 | 0.97 | 89 | 997.4 |
| 20260903050529 | 13 | 168 | 3.2 | 6.4 | 0.00 | 0.97 | 0.97 | 89 | 997.4 |
| 20260903050001 | 13 | 175 | 0.0 | 6.4 | 0.00 | 0.97 | 0.97 | 89 | 997.3 |
| 20260903045513 | 13 | 207 | 0.0 | 6.4 | 0.00 | 0.97 | 0.97 | 89 | 997.3 |
| 20260903045020 | 13 | 176 | 0.0 | 3.2 | 0.00 | 0.97 | 0.97 | 89 | 997.3 |
| 20260903044552 | 13 | 175 | 0.0 | 6.4 | 0.00 | 0.97 | 0.97 | 89 | 997.3 |
| 20260903044103 | 13 | 174 | 0.0 | 9.7 | 0.00 | 0.97 | 0.97 | 89 | 997.2 |
| 20260903043549 | 13 | 173 | 0.0 | 9.7 | 0.00 | 0.97 | 0.97 | 89 | 997.3 |
| 20260903043016 | 13 | 236 | 0.0 | 8.0 | 0.00 | 0.97 | 0.97 | 89 | 997.2 |
| 20260903042525 | 13 | 151 | 0.0 | 8.0 | 0.00 | 0.97 | 0.97 | 89 | 997.1 |
| 20260903042032 | 13 | 167 | 0.0 | 9.7 | 0.00 | 0.97 | 0.97 | 89 | 997.0 |
| 20260903041559 | 13 | 170 | 3.2 | 9.7 | 0.00 | 0.97 | 0.97 | 88 | 997.0 |
| 20260903041007 | 13 | 258 | 1.6 | 4.8 | 0.00 | 0.97 | 0.97 | 88 | 997.0 |
| 20260903040513 | 13 | 259 | 0.0 | 11.3 | 0.00 | 0.97 | 0.97 | 88 | 996.9 |
| 20260903040036 | 13 | 251 | 1.6 | 11.3 | 0.00 | 0.97 | 0.97 | 88 | 997.0 |
| 20260903035541 | 13 | 211 | 0.0 | 4.8 | 0.00 | 0.97 | 0.97 | 88 | 996.9 |
| 20260903035049 | 13 | 190 | 0.0 | 4.8 | 0.00 | 0.97 | 0.97 | 88 | 996.9 |
| 20260903034502 | 13 | 190 | 0.0 | 3.2 | 0.00 | 0.97 | 0.97 | 88 | 996.6 |
| 20260903034007 | 13 | 190 | 0.0 | 3.2 | 0.00 | 0.97 | 0.97 | 88 | 996.6 |
| 20260903033523 | 13 | 190 | 0.0 | 0.0 | 0.00 | 0.97 | 0.97 | 88 | 996.5 |
| 20260903033053 | 13 | 189 | 0.0 | 0.0 | 0.00 | 0.97 | 0.97 | 87 | 996.4 |
| 20260903032504 | 13 | 189 | 0.0 | 3.2 | 0.00 | 0.97 | 0.97 | 88 | 996.3 |
| 20260903032013 | 13 | 189 | 0.0 | 4.8 | 0.00 | 0.97 | 0.97 | 87 | 996.3 |
| 20260903031549 | 13 | 189 | 0.0 | 9.7 | 0.00 | 0.97 | 0.97 | 87 | 996.2 |
| 20260903031055 | 13 | 183 | 0.0 | 9.7 | 0.00 | 0.97 | 0.97 | 87 | 996.2 |
| 20260903030603 | 13 | 205 | 0.0 | 4.8 | 0.00 | 0.97 | 0.97 | 87 | 996.1 |
| 20260903030046 | 13 | 205 | 0.0 | 9.7 | 0.00 | 0.97 | 0.97 | 87 | 996.1 |
| 20260903025541 | 13 | 175 | 1.6 | 9.7 | 0.00 | 0.97 | 0.97 | 87 | 996.0 |
| 20260903025051 | 14 | 174 | 1.6 | 8.0 | 0.00 | 0.97 | 0.97 | 87 | 996.0 |
| 20260903024529 | 14 | 162 | 0.0 | 4.8 | 0.00 | 0.97 | 0.97 | 87 | 995.9 |
| 20260903024036 | 14 | 172 | 0.0 | 9.7 | 0.00 | 0.97 | 0.97 | 87 | 995.7 |
| 20260903023541 | 14 | 172 | 3.2 | 9.7 | 0.00 | 0.97 | 0.97 | 87 | 995.7 |
| 20260903023008 | 14 | 202 | 0.0 | 4.8 | 0.00 | 0.97 | 0.97 | 86 | 995.8 |
| 20260903022524 | 14 | 202 | 1.6 | 6.4 | 0.00 | 0.97 | 0.97 | 87 | 995.7 |
| 20260903022035 | 15 | 200 | 1.6 | 6.4 | 0.00 | 0.97 | 0.97 | 87 | 995.6 |
| 20260903021502 | 15 | 150 | 0.0 | 3.2 | 0.00 | 0.97 | 0.97 | 87 | 995.5 |
| 20260903021007 | 15 | 150 | 0.0 | 11.3 | 0.00 | 0.97 | 0.97 | 87 | 995.6 |
| 20260903020515 | 15 | 150 | 0.0 | 11.3 | 0.00 | 0.97 | 0.97 | 87 | 995.6 |
| 20260903020051 | 15 | 162 | 1.6 | 11.3 | 0.00 | 0.97 | 0.97 | 86 | 995.6 |
| 20260903015557 | 15 | 170 | 1.6 | 9.7 | 0.00 | 0.97 | 0.97 | 87 | 995.5 |
| 20260903015001 | 15 | 202 | 0.0 | 3.2 | 0.00 | 0.97 | 0.97 | 87 | 995.4 |
| 20260903014545 | 15 | 196 | 0.0 | 3.2 | 0.00 | 0.97 | 0.97 | 87 | 995.4 |
| 20260903014043 | 15 | 196 | 0.0 | 3.2 | 0.00 | 0.97 | 0.97 | 87 | 995.3 |
| 20260903013551 | 15 | 196 | 0.0 | 1.6 | 0.00 | 0.97 | 0.97 | 87 | 995.4 |
| 20260903013028 | 15 | 196 | 0.0 | 4.8 | 0.00 | 0.97 | 0.97 | 86 | 995.3 |
| 20260903012531 | 15 | 196 | 0.0 | 6.4 | 0.00 | 0.97 | 0.97 | 86 | 995.3 |
| 20260903012040 | 15 | 215 | 0.0 | 4.8 | 0.00 | 0.97 | 0.97 | 87 | 995.2 |
| 20260903011518 | 15 | 228 | 0.0 | 4.8 | 0.00 | 0.97 | 0.97 | 87 | 995.2 |
| 20260903011024 | 15 | 228 | 0.0 | 6.4 | 0.00 | 0.97 | 0.97 | 87 | 995.2 |
| 20260903010530 | 15 | 227 | 1.6 | 6.4 | 0.00 | 0.97 | 0.97 | 87 | 995.2 |
| 20260903010046 | 15 | 160 | 1.6 | 8.0 | 0.00 | 0.97 | 0.97 | 87 | 995.1 |
| 20260903005553 | 15 | 189 | 0.0 | 12.9 | 0.00 | 0.97 | 0.97 | 87 | 995.2 |
| 20260903005103 | 15 | 178 | 3.2 | 12.9 | 0.00 | 0.97 | 0.97 | 87 | 995.2 |
| 20260903004538 | 15 | 182 | 1.6 | 8.0 | 0.00 | 0.97 | 0.97 | 87 | 995.1 |
| 20260903004041 | 15 | 180 | 1.6 | 11.3 | 0.00 | 0.97 | 0.97 | 87 | 995.1 |
| 20260903003551 | 15 | 166 | 0.0 | 11.3 | 0.00 | 0.97 | 0.97 | 87 | 995.0 |
| 20260903003025 | 15 | 275 | 3.2 | 9.7 | 0.00 | 0.97 | 0.97 | 87 | 995.0 |
| 20260903002531 | 15 | 175 | 0.0 | 6.4 | 0.00 | 0.97 | 0.97 | 87 | 994.9 |
| 20260903002038 | 15 | 183 | 1.6 | 8.0 | 0.00 | 0.97 | 0.97 | 87 | 994.9 |
| 20260903001504 | 15 | 155 | 1.6 | 8.0 | 0.00 | 0.97 | 0.97 | 88 | 994.9 |
| 20260903001012 | 15 | 175 | 3.2 | 8.0 | 0.00 | 0.97 | 0.97 | 88 | 994.8 |
| 20260903000524 | 15 | 149 | 0.0 | 4.8 | 0.00 | 0.97 | 0.97 | 88 | 994.8 |
| 20260903000059 | 15 | 146 | 1.6 | 6.4 | 0.00 | 0.97 | 0.97 | 88 | 994.8 |
| 20260902235602 | 15 | 209 | 0.0 | 12.9 | 0.03 | 0.97 | 0.97 | 88 | 994.8 |
| 20260902235008 | 15 | 201 | 1.6 | 12.9 | 0.03 | 0.97 | 0.97 | 88 | 994.8 |
| 20260902234543 | 15 | 154 | 1.6 | 16.1 | 0.03 | 0.97 | 0.97 | 88 | 994.8 |
| 20260902234049 | 15 | 160 | 4.8 | 16.1 | 0.03 | 0.97 | 0.97 | 89 | 994.8 |
| 20260902233555 | 15 | 113 | 1.6 | 6.4 | 0.03 | 0.97 | 0.97 | 89 | 994.7 |
| 20260902233047 | 15 | 111 | 3.2 | 8.0 | 0.03 | 0.97 | 0.97 | 89 | 994.6 |
| 20260902232543 | 15 | 165 | 3.2 | 8.0 | 0.10 | 0.97 | 0.97 | 89 | 994.7 |
| 20260902232049 | 15 | 189 | 3.2 | 8.0 | 0.18 | 0.97 | 0.97 | 89 | 994.7 |
| 20260902231527 | 15 | 117 | 0.0 | 8.0 | 0.20 | 0.97 | 0.97 | 89 | 994.8 |
| 20260902231039 | 15 | 177 | 3.2 | 8.0 | 0.20 | 0.97 | 0.97 | 89 | 994.7 |
| 20260902230548 | 15 | 215 | 1.6 | 4.8 | 0.20 | 0.97 | 0.97 | 89 | 994.7 |
| 20260902230010 | 15 | 200 | 0.0 | 8.0 | 0.18 | 0.94 | 0.97 | 89 | 994.7 |
| 20260902225525 | 14 | 200 | 0.0 | 9.7 | 0.18 | 0.94 | 0.94 | 89 | 994.4 |
| 20260902225029 | 14 | 194 | 1.6 | 9.7 | 0.18 | 0.94 | 0.94 | 89 | 994.3 |
| 20260902224605 | 14 | 212 | 0.0 | 11.3 | 0.18 | 0.94 | 0.94 | 89 | 994.3 |
| 20260902224000 | 14 | 201 | 1.6 | 6.4 | 0.18 | 0.94 | 0.94 | 89 | 994.3 |
| 20260902223503 | 14 | 168 | 1.6 | 6.4 | 0.18 | 0.94 | 0.94 | 89 | 994.3 |
| 20260902223037 | 14 | 223 | 1.6 | 11.3 | 0.18 | 0.94 | 0.94 | 89 | 994.3 |
| 20260902222545 | 14 | 261 | 3.2 | 12.9 | 0.08 | 0.84 | 0.86 | 89 | 994.2 |
| 20260902222050 | 14 | 24 | 6.4 | 19.3 | 0.03 | 0.79 | 0.79 | 89 | 994.0 |
| 20260902221524 | 14 | 209 | 6.4 | 19.3 | 0.00 | 0.76 | 0.76 | 89 | 993.8 |
| 20260902221029 | 14 | 160 | 6.4 | 16.1 | 0.00 | 0.76 | 0.76 | 89 | 993.7 |
| 20260902220536 | 14 | 189 | 3.2 | 14.5 | 0.00 | 0.76 | 0.76 | 89 | 993.7 |
| 20260902220025 | 14 | 319 | 1.6 | 16.1 | 0.00 | 0.76 | 0.76 | 89 | 993.7 |
| 20260902215510 | 14 | 223 | 3.2 | 27.4 | 0.00 | 0.76 | 0.76 | 89 | 993.6 |
| 20260902215031 | 14 | 200 | 9.7 | 27.4 | 0.03 | 0.76 | 0.76 | 89 | 993.6 |
| 20260902214607 | 14 | 161 | 4.8 | 32.2 | 0.03 | 0.76 | 0.76 | 89 | 993.6 |
| 20260902214055 | 14 | 296 | 6.4 | 32.2 | 0.03 | 0.76 | 0.76 | 89 | 993.6 |
| 20260902213603 | 14 | 193 | 1.6 | 27.4 | 0.03 | 0.76 | 0.76 | 89 | 993.5 |
| 20260902213034 | 14 | 151 | 9.7 | 29.0 | 0.03 | 0.76 | 0.76 | 89 | 993.6 |
| 20260902212546 | 14 | 355 | 3.2 | 22.5 | 0.03 | 0.76 | 0.76 | 89 | 993.6 |
| 20260902212045 | 14 | 75 | 6.4 | 22.5 | 0.03 | 0.76 | 0.76 | 89 | 993.5 |
| 20260902211521 | 13 | 277 | 1.6 | 17.7 | 0.03 | 0.76 | 0.76 | 89 | 993.6 |
| 20260902211027 | 13 | 134 | 4.8 | 16.1 | 0.03 | 0.76 | 0.76 | 89 | 993.6 |
| 20260902210533 | 13 | 327 | 4.8 | 16.1 | 0.03 | 0.76 | 0.76 | 89 | 993.5 |
| 20260902210045 | 13 | 150 | 3.2 | 24.1 | 0.03 | 0.76 | 0.76 | 89 | 993.5 |
| 20260902205550 | 13 | 355 | 1.6 | 24.1 | 0.03 | 0.76 | 0.76 | 89 | 993.6 |
| 20260902205056 | 13 | 169 | 1.6 | 12.9 | 0.00 | 0.71 | 0.71 | 89 | 993.5 |
| 20260902204529 | 13 | 255 | 6.4 | 14.5 | 0.00 | 0.71 | 0.71 | 89 | 993.5 |
| 20260902204038 | 13 | 360 | 1.6 | 14.5 | 0.03 | 0.71 | 0.71 | 89 | 993.4 |
| 20260902203548 | 13 | 184 | 4.8 | 14.5 | 0.03 | 0.71 | 0.71 | 89 | 993.5 |
| 20260902203003 | 13 | 316 | 3.2 | 12.9 | 0.03 | 0.71 | 0.71 | 89 | 993.5 |
| 20260902202510 | 13 | 196 | 1.6 | 14.5 | 0.05 | 0.71 | 0.71 | 89 | 993.4 |
| 20260902202023 | 13 | 286 | 0.0 | 12.9 | 0.08 | 0.71 | 0.71 | 89 | 993.4 |
| 20260902201552 | 13 | 225 | 3.2 | 12.9 | 0.10 | 0.71 | 0.71 | 89 | 993.3 |
| 20260902201056 | 13 | 219 | 1.6 | 12.9 | 0.13 | 0.71 | 0.71 | 89 | 993.1 |
| 20260902200502 | 13 | 319 | 3.2 | 16.1 | 0.15 | 0.71 | 0.71 | 89 | 993.2 |
| 20260902200035 | 13 | 74 | 6.4 | 16.1 | 0.18 | 0.71 | 0.71 | 89 | 993.1 |
| 20260902195541 | 13 | 63 | 4.8 | 11.3 | 0.23 | 0.71 | 0.71 | 89 | 993.2 |
| 20260902195050 | 13 | 153 | 3.2 | 17.7 | 0.25 | 0.71 | 0.71 | 89 | 993.1 |
| 20260902194525 | 13 | 19 | 4.8 | 17.7 | 0.30 | 0.71 | 0.71 | 89 | 993.1 |
| 20260902194013 | 13 | 294 | 3.2 | 14.5 | 0.30 | 0.71 | 0.71 | 89 | 993.2 |
| 20260902193520 | 13 | 111 | 1.6 | 17.7 | 0.30 | 0.71 | 0.71 | 88 | 993.2 |
| 20260902193058 | 13 | 97 | 0.0 | 20.9 | 0.33 | 0.71 | 0.71 | 88 | 993.3 |
| 20260902192603 | 13 | 74 | 1.6 | 20.9 | 0.33 | 0.69 | 0.69 | 88 | 993.3 |
| 20260902192004 | 13 | 355 | 1.6 | 8.0 | 0.30 | 0.66 | 0.66 | 89 | 993.5 |
| 20260902191544 | 13 | 57 | 3.2 | 8.0 | 0.30 | 0.64 | 0.64 | 88 | 993.5 |
| 20260902191046 | 13 | 258 | 1.6 | 8.0 | 0.30 | 0.61 | 0.61 | 88 | 993.6 |
| 20260902190550 | 13 | 183 | 1.6 | 8.0 | 0.28 | 0.58 | 0.58 | 88 | 993.9 |
| 20260902190022 | 13 | 342 | 0.0 | 8.0 | 0.25 | 0.56 | 0.56 | 88 | 994.0 |
| 20260902185530 | 13 | 56 | 1.6 | 8.0 | 0.23 | 0.51 | 0.51 | 88 | 994.1 |
| 20260902185026 | 13 | 209 | 3.2 | 12.9 | 0.20 | 0.48 | 0.48 | 88 | 994.2 |
| 20260902184604 | 13 | 325 | 1.6 | 12.9 | 0.18 | 0.43 | 0.46 | 88 | 994.1 |
| 20260902184018 | 13 | 236 | 1.6 | 6.4 | 0.18 | 0.41 | 0.41 | 88 | 994.0 |
| 20260902183503 | 13 | 223 | 1.6 | 3.2 | 0.18 | 0.41 | 0.41 | 88 | 993.9 |
| 20260902183041 | 13 | 245 | 1.6 | 6.4 | 0.18 | 0.38 | 0.38 | 87 | 993.9 |
| 20260902182546 | 13 | 123 | 1.6 | 8.0 | 0.18 | 0.36 | 0.36 | 87 | 993.8 |
| 20260902182054 | 13 | 50 | 0.0 | 11.3 | 0.18 | 0.36 | 0.36 | 87 | 994.0 |
| 20260902181519 | 13 | 156 | 4.8 | 11.3 | 0.20 | 0.33 | 0.33 | 87 | 994.1 |
| 20260902181024 | 13 | 5 | 1.6 | 6.4 | 0.23 | 0.30 | 0.30 | 87 | 994.2 |
| 20260902180532 | 13 | 214 | 1.6 | 6.4 | 0.23 | 0.30 | 0.30 | 87 | 994.3 |
| 20260902180055 | 13 | 150 | 0.0 | 6.4 | 0.25 | 0.30 | 0.30 | 87 | 994.5 |
| 20260902175553 | 13 | 182 | 1.6 | 12.9 | 0.23 | 0.28 | 0.28 | 87 | 994.3 |
| 20260902175105 | 13 | 142 | 1.6 | 12.9 | 0.25 | 0.28 | 0.28 | 87 | 994.4 |
| 20260902174548 | 13 | 165 | 1.6 | 12.9 | 0.23 | 0.25 | 0.25 | 86 | 994.5 |
| 20260902174044 | 13 | 161 | 4.8 | 12.9 | 0.20 | 0.23 | 0.23 | 86 | 994.6 |
| 20260902173552 | 14 | 159 | 1.6 | 12.9 | 0.23 | 0.23 | 0.23 | 86 | 994.7 |
| 20260902173049 | 14 | 159 | 1.6 | 9.7 | 0.20 | 0.20 | 0.20 | 85 | 994.5 |
| 20260902172528 | 14 | 195 | 1.6 | 9.7 | 0.18 | 0.18 | 0.18 | 85 | 994.6 |
| 20260902172036 | 14 | 209 | 4.8 | 9.7 | 0.18 | 0.18 | 0.18 | 85 | 994.6 |
| 20260902171557 | 14 | 209 | 1.6 | 6.4 | 0.13 | 0.13 | 0.13 | 84 | 994.5 |
| 20260902171056 | 15 | 192 | 1.6 | 11.3 | 0.08 | 0.08 | 0.08 | 84 | 994.5 |
| 20260902170556 | 15 | 187 | 1.6 | 11.3 | 0.08 | 0.08 | 0.08 | 84 | 994.4 |
| 20260902170031 | 15 | 238 | 1.6 | 3.2 | 0.05 | 0.05 | 0.05 | 83 | 994.4 |
| 20260902165535 | 15 | 272 | 0.0 | 3.2 | 0.05 | 0.05 | 0.05 | 83 | 994.4 |
| 20260902165039 | 15 | 272 | 0.0 | 4.8 | 0.03 | 0.03 | 0.03 | 83 | 994.3 |
| 20260902164504 | 15 | 152 | 1.6 | 4.8 | 0.03 | 0.03 | 0.03 | 82 | 994.4 |
| 20260902164012 | 15 | 211 | 0.0 | 8.0 | 0.03 | 0.03 | 0.03 | 82 | 994.3 |
| 20260902163520 | 15 | 211 | 0.0 | 8.0 | 0.00 | 0.00 | 0.00 | 82 | 994.3 |
| 20260902163051 | 15 | 195 | 1.6 | 9.7 | 0.00 | 0.00 | 0.00 | 82 | 994.2 |
| 20260902162603 | 15 | 254 | 0.0 | 9.7 | 0.00 | 0.00 | 0.00 | 81 | 994.3 |
| 20260902162009 | 15 | 188 | 0.0 | 8.0 | 0.00 | 0.00 | 0.00 | 81 | 994.3 |
| 20260902161543 | 15 | 255 | 0.0 | 8.0 | 0.00 | 0.00 | 0.00 | 82 | 994.2 |
| 20260902161048 | 15 | 190 | 1.6 | 4.8 | 0.00 | 0.00 | 0.00 | 81 | 994.3 |
| 20260902160555 | 15 | 360 | 0.0 | 4.8 | 0.00 | 0.00 | 0.00 | 82 | 994.2 |
| 20260902160009 | 15 | 278 | 0.0 | 3.2 | 0.00 | 0.00 | 0.00 | 82 | 994.3 |
| 20260902155512 | 15 | 278 | 0.0 | 3.2 | 0.00 | 0.00 | 0.00 | 82 | 994.3 |
| 20260902155019 | 15 | 278 | 0.0 | 4.8 | 0.00 | 0.00 | 0.00 | 82 | 994.3 |
| 20260902154558 | 15 | 278 | 0.0 | 3.2 | 0.00 | 0.00 | 0.00 | 82 | 994.4 |
| 20260902154102 | 15 | 315 | 0.0 | 3.2 | 0.00 | 0.00 | 0.00 | 83 | 994.3 |
| 20260902153506 | 15 | 312 | 0.0 | 3.2 | 0.00 | 0.00 | 0.00 | 83 | 994.5 |
| 20260902153044 | 15 | 273 | 1.6 | 4.8 | 0.00 | 0.00 | 0.00 | 83 | 994.5 |
| 20260902152550 | 15 | 273 | 0.0 | 4.8 | 0.00 | 0.00 | 0.00 | 83 | 994.6 |
| 20260902152052 | 15 | 192 | 0.0 | 1.6 | 0.00 | 0.00 | 0.00 | 83 | 994.7 |
| 20260902151528 | 15 | 192 | 0.0 | 8.0 | 0.00 | 0.00 | 0.00 | 82 | 994.7 |
| 20260902151032 | 15 | 192 | 0.0 | 8.0 | 0.00 | 0.00 | 0.00 | 82 | 994.8 |
| 20260902150532 | 15 | 211 | 1.6 | 6.4 | 0.00 | 0.00 | 0.00 | 82 | 995.0 |
| 20260902150100 | 14 | 303 | 1.6 | 6.4 | 0.00 | 0.00 | 0.00 | 82 | 994.9 |
| 20260902145517 | 14 | 263 | 1.6 | 4.8 | 0.00 | 0.00 | 0.00 | 82 | 994.9 |
| 20260902145003 | 14 | 273 | 0.0 | 1.6 | 0.00 | 0.00 | 0.00 | 82 | 995.0 |
| 20260902144540 | 14 | 273 | 0.0 | 1.6 | 0.00 | 0.00 | 0.00 | 82 | 994.9 |
| 20260902144048 | 14 | 273 | 0.0 | 1.6 | 0.00 | 0.00 | 0.00 | 82 | 994.9 |
| 20260902143550 | 14 | 273 | 0.0 | 1.6 | 0.00 | 0.00 | 0.00 | 82 | 994.9 |
| 20260902143020 | 14 | 273 | 0.0 | 1.6 | 0.00 | 0.00 | 0.00 | 82 | 995.0 |
| 20260902142528 | 14 | 268 | 0.0 | 0.0 | 0.00 | 0.00 | 0.00 | 82 | 995.0 |
| 20260902142036 | 14 | 268 | 0.0 | 0.0 | 0.00 | 0.00 | 0.00 | 82 | 995.1 |
| 20260902141559 | 14 | 268 | 0.0 | 0.0 | 0.00 | 0.00 | 0.00 | 82 | 995.1 |
| 20260902141054 | 14 | 268 | 0.0 | 0.0 | 0.00 | 0.00 | 0.00 | 81 | 995.1 |
| 20260902140603 | 14 | 268 | 0.0 | 0.0 | 0.00 | 0.00 | 0.00 | 81 | 995.2 |
| 20260902140028 | 14 | 268 | 0.0 | 0.0 | 0.00 | 0.00 | 0.00 | 81 | 995.2 |
| 20260902135533 | 14 | 268 | 0.0 | 0.0 | 0.00 | 0.00 | 0.00 | 81 | 995.3 |
| 20260902135037 | 14 | 268 | 0.0 | 0.0 | 0.00 | 0.00 | 0.00 | 81 | 995.2 |
| 20260902134503 | 14 | 268 | 0.0 | 0.0 | 0.00 | 0.00 | 0.00 | 81 | 995.4 |
| 20260902134006 | 14 | 268 | 0.0 | 0.0 | 0.00 | 0.00 | 0.00 | 81 | 995.4 |
| 20260902133514 | 14 | 268 | 0.0 | 0.0 | 0.00 | 0.00 | 0.00 | 80 | 995.5 |
| 20260902133056 | 14 | 268 | 0.0 | 0.0 | 0.00 | 0.00 | 0.00 | 80 | 995.5 |
| 20260902132552 | 14 | 268 | 0.0 | 0.0 | 0.00 | 0.00 | 0.00 | 80 | 995.6 |
| 20260902132101 | 14 | 269 | 0.0 | 0.0 | 0.00 | 0.00 | 0.00 | 80 | 995.7 |
| 20260902131549 | 14 | 269 | 0.0 | 0.0 | 0.00 | 0.00 | 0.00 | 80 | 995.8 |
| 20260902131040 | 14 | 269 | 0.0 | 0.0 | 0.00 | 0.00 | 0.00 | 80 | 995.8 |
| 20260902130546 | 14 | 273 | 0.0 | 3.2 | 0.00 | 0.00 | 0.00 | 80 | 995.9 |
| 20260902130021 | 14 | 180 | 0.0 | 3.2 | 0.00 | 0.00 | 0.00 | 80 | 996.2 |
| 20260902125531 | 14 | 182 | 0.0 | 3.2 | 0.00 | 0.00 | 0.00 | 80 | 996.1 |
| 20260902125034 | 14 | 178 | 0.0 | 3.2 | 0.00 | 0.00 | 0.00 | 80 | 996.4 |
| 20260902124612 | 14 | 175 | 0.0 | 3.2 | 0.00 | 0.00 | 0.00 | 80 | 996.4 |
| 20260902124004 | 14 | 220 | 0.0 | 6.4 | 0.00 | 0.00 | 0.00 | 80 | 996.4 |
| 20260902123507 | 14 | 220 | 1.6 | 6.4 | 0.00 | 0.00 | 0.00 | 80 | 996.6 |
| 20260902123123 | 14 | 304 | 1.6 | 4.8 | 0.00 | 0.00 | 0.00 | 80 | 996.5 |
| 20260902122554 | 14 | 273 | 1.6 | 4.8 | 0.00 | 0.00 | 0.00 | 80 | 996.7 |
| 20260902122055 | 14 | 188 | 0.0 | 4.8 | 0.00 | 0.00 | 0.00 | 80 | 996.6 |
| 20260902121528 | 14 | 280 | 0.0 | 4.8 | 0.00 | 0.00 | 0.00 | 80 | 996.7 |
| 20260902121031 | 14 | 274 | 0.0 | 4.8 | 0.00 | 0.00 | 0.00 | 80 | 996.9 |
| 20260902120540 | 14 | 221 | 0.0 | 4.8 | 0.00 | 0.00 | 0.00 | 80 | 997.0 |
| 20260902120001 | 14 | 222 | 1.6 | 3.2 | 0.00 | 0.00 | 0.00 | 80 | 996.9 |
| 20260902115507 | 14 | 206 | 0.0 | 4.8 | 0.00 | 0.00 | 0.00 | 80 | 997.1 |
| 20260902115017 | 14 | 211 | 0.0 | 4.8 | 0.00 | 0.00 | 0.00 | 80 | 997.1 |
| 20260902114539 | 14 | 263 | 0.0 | 4.8 | 0.00 | 0.00 | 0.00 | 80 | 997.2 |
| 20260902114035 | 14 | 355 | 0.0 | 6.4 | 0.00 | 0.00 | 0.00 | 80 | 997.3 |
| 20260902113541 | 14 | 198 | 1.6 | 8.0 | 0.00 | 0.00 | 0.00 | 80 | 997.4 |
| 20260902113010 | 14 | 167 | 3.2 | 9.7 | 0.00 | 0.00 | 0.00 | 80 | 997.4 |
| 20260902112519 | 14 | 234 | 0.0 | 8.0 | 0.00 | 0.00 | 0.00 | 80 | 997.5 |
| 20260902112028 | 14 | 297 | 0.0 | 4.8 | 0.00 | 0.00 | 0.00 | 80 | 997.4 |
| 20260902111600 | 14 | 32 | 0.0 | 3.2 | 0.00 | 0.00 | 0.00 | 80 | 997.5 |
| 20260902111102 | 14 | 32 | 0.0 | 3.2 | 0.00 | 0.00 | 0.00 | 80 | 997.5 |
| 20260902110508 | 14 | 32 | 1.6 | 3.2 | 0.00 | 0.00 | 0.00 | 81 | 997.5 |
| 20260902110026 | 14 | 33 | 0.0 | 4.8 | 0.00 | 0.00 | 0.00 | 80 | 997.6 |
| 20260902105534 | 14 | 5 | 1.6 | 4.8 | 0.00 | 0.00 | 0.00 | 81 | 997.5 |
| 20260902105037 | 14 | 300 | 0.0 | 3.2 | 0.00 | 0.00 | 0.00 | 81 | 997.6 |
| 20260902104510 | 14 | 222 | 0.0 | 4.8 | 0.00 | 0.00 | 0.00 | 81 | 997.6 |
| 20260902104020 | 14 | 137 | 0.0 | 3.2 | 0.00 | 0.00 | 0.00 | 81 | 997.7 |
| 20260902103521 | 14 | 57 | 0.0 | 4.8 | 0.00 | 0.00 | 0.00 | 82 | 997.7 |
| 20260902103050 | 14 | 58 | 0.0 | 3.2 | 0.00 | 0.00 | 0.00 | 82 | 997.8 |
| 20260902102556 | 14 | 192 | 0.0 | 3.2 | 0.00 | 0.00 | 0.00 | 82 | 997.8 |
| 20260902102004 | 14 | 192 | 0.0 | 6.4 | 0.00 | 0.00 | 0.00 | 82 | 997.7 |
| 20260902101551 | 14 | 192 | 0.0 | 6.4 | 0.00 | 0.00 | 0.00 | 82 | 997.7 |
| 20260902101049 | 14 | 229 | 1.6 | 4.8 | 0.00 | 0.00 | 0.00 | 82 | 997.8 |
| 20260902100555 | 14 | 274 | 1.6 | 6.4 | 0.00 | 0.00 | 0.00 | 83 | 997.8 |
| 20260902100023 | 14 | 278 | 1.6 | 4.8 | 0.00 | 0.00 | 0.00 | 83 | 997.8 |
| 20260902095531 | 14 | 248 | 0.0 | 4.8 | 0.00 | 0.00 | 0.00 | 83 | 997.9 |
| 20260902095043 | 14 | 250 | 0.0 | 4.8 | 0.00 | 0.00 | 0.00 | 83 | 997.9 |
| 20260902094506 | 14 | 251 | 0.0 | 3.2 | 0.00 | 0.00 | 0.00 | 83 | 997.9 |
| 20260902094014 | 13 | 88 | 0.0 | 3.2 | 0.00 | 0.00 | 0.00 | 83 | 997.9 |
| 20260902093522 | 13 | 88 | 0.0 | 4.8 | 0.00 | 0.00 | 0.00 | 84 | 997.9 |
| 20260902093059 | 13 | 78 | 0.0 | 6.4 | 0.00 | 0.00 | 0.00 | 84 | 998.0 |
| 20260902092601 | 13 | 261 | 1.6 | 11.3 | 0.00 | 0.00 | 0.00 | 84 | 998.0 |
| 20260902092008 | 13 | 184 | 1.6 | 11.3 | 0.00 | 0.00 | 0.00 | 84 | 998.2 |
| 20260902091559 | 13 | 215 | 0.0 | 3.2 | 0.00 | 0.00 | 0.00 | 84 | 998.3 |
| 20260902091039 | 13 | 213 | 0.0 | 0.0 | 0.00 | 0.00 | 0.00 | 84 | 998.3 |
| 20260902090549 | 13 | 210 | 0.0 | 0.0 | 0.00 | 0.00 | 0.00 | 84 | 998.3 |
| 20260902090030 | 13 | 210 | 0.0 | 0.0 | 0.00 | 0.00 | 0.00 | 84 | 998.3 |
| 20260902085525 | 13 | 210 | 0.0 | 0.0 | 0.00 | 0.00 | 0.00 | 83 | 998.5 |
| 20260902085029 | 13 | 210 | 0.0 | 0.0 | 0.00 | 0.00 | 0.00 | 83 | 998.5 |